"Time","Temp","Dewpoint","Humidity","Pressure","Direction","Speed","Gust","Precip","PrecipRate"
"00:04:57","73.4","71.6","94","29.89","181","0","0","0.00","0.00"
"00:09:59","73.3","71.5","94","29.89","181","0","0","0.00","0.00"
"00:14:58","73.3","71.5","94","29.89","181","0","0","0.00","0.00"
"00:19:59","73.3","71.5","94","29.89","181","0","0","0.00","0.00"
"00:24:58","73.4","71.6","94","29.89","181","0","0","0.00","0.00"
"00:29:56","73.4","71.6","94","29.89","181","0","0","0.00","0.00"
"00:34:59","73.4","71.4","93.6","29.89","181","0","0","0.00","0.00"
"00:39:57","73.4","71.3","93","29.89","182","0","0","0.00","0.00"
"00:44:59","73.5","71.4","93","29.89","182","0","0","0.00","0.00"
"00:49:58","73.6","71.4","93","29.89","182","0","0","0.00","0.00"
"00:54:57","73.6","71.4","93","29.89","182","0","0","0.00","0.00"
"00:59:59","73.7","71.3","92.4","29.89","182","0","0","0.00","0.00"
"01:04:58","73.7","71.2","92","29.88","182","0","0","0.00","0.00"
"01:09:59","73.7","71.3","92.3","29.88","182","0","0","0.00","0.00"
"01:14:56","73.7","71.2","92","29.88","182","0","0","0.00","0.00"
"01:19:58","73.8","71.5","92.7","29.88","182","0","0","0.00","0.00"
"01:24:58","73.8","71.3","92","29.88","182","0","0","0.00","0.00"
"01:29:57","73.8","71.6","92.9","29.88","182","0","0","0.00","0.00"
"01:34:55","73.8","71.6","93","29.88","182","0","0","0.00","0.00"
"01:39:57","73.7","71.5","93","29.88","182","0","0","0.00","0.00"
"01:44:57","73.6","71.4","93","29.88","182","0","0","0.00","0.00"
"01:49:59","73.6","71.4","93","29.88","182","0","0","0.00","0.00"
"01:54:57","73.7","71.5","93","29.88","182","0","0","0.00","0.00"
"01:59:56","73.7","71.5","93","29.88","182","0","0","0.00","0.00"
"02:04:58","73.7","71.5","93","29.87","182","0","0","0.00","0.00"
"02:09:57","73.7","71.5","93","29.87","182","0","0","0.00","0.00"
"02:14:58","73.7","71.5","93","29.87","182","0","0","0.00","0.00"
"02:19:56","73.6","71.4","93","29.87","182","0","0","0.00","0.00"
"02:24:56","73.5","71.4","93","29.87","182","0","0","0.00","0.00"
"02:29:56","73.5","71.4","93.1","29.87","182","0","0","0.00","0.00"
"02:34:57","73.4","71.5","93.5","29.87","182","0","0","0.00","0.00"
"02:39:57","73.3","71.3","93.2","29.87","182","0","0","0.00","0.00"
"02:44:58","73.2","71.1","93","29.87","182","0","0","0.00","0.00"
"02:49:57","73","71","93.2","29.87","182","0","0","0.00","0.00"
"02:54:57","72.9","70.8","93","29.87","182","0","0","0.00","0.00"
"02:59:56","72.7","70.7","93.5","29.87","182","0","0","0.00","0.00"
"03:04:58","72.6","70.8","94","29.86","182","0","0","0.00","0.00"
"03:09:57","72.4","70.6","94","29.86","182","0","0","0.00","0.00"
"03:14:58","72.3","70.5","94","29.86","182","0","0","0.00","0.00"
"03:19:56","72.2","70.4","94","29.86","182","0","0","0.00","0.00"
"03:24:56","72.1","70.3","94","29.86","182","0","0","0.00","0.00"
"03:29:59","72","70.3","94.3","29.86","182","0","0","0.00","0.00"
"03:34:56","71.9","70.4","95","29.86","182","0","0","0.00","0.00"
"03:39:58","71.9","70.4","95","29.86","182","0","0","0.00","0.00"
"03:44:55","71.8","70.3","95","29.86","182","0","0","0.00","0.00"
"03:49:57","71.8","70.3","95","29.86","182","0","0","0.00","0.00"
"03:54:59","71.7","70.2","95","29.86","182","0","0","0.00","0.00"
"03:59:57","71.5","70","95","29.86","182","0","0","0.00","0.00"
"04:04:59","71.3","69.8","95","29.86","182","0","0","0.00","0.00"
"04:09:57","71.2","69.7","95","29.86","182","0","0","0.00","0.00"
"04:14:56","71.1","69.6","95","29.86","182","0","0","0.00","0.00"
"04:19:57","70.9","69.5","95.3","29.86","182","0","0","0.00","0.00"
"04:24:59","70.9","69.7","96","29.86","182","0","0","0.00","0.00"
"04:29:59","70.8","69.6","96","29.86","182","0","0","0.00","0.00"
"04:34:59","70.7","69.5","96","29.86","182","0","0","0.00","0.00"
"04:39:58","70.6","69.4","96","29.86","182","0","0","0.00","0.00"
"04:44:58","70.5","69.3","96","29.86","182","0","0","0.00","0.00"
"04:49:56","70.4","69.2","96","29.86","182","0","0","0.00","0.00"
"04:54:57","70.3","69.1","96","29.86","182","0","0","0.00","0.00"
"04:59:59","70.2","69","96","29.86","182","0","0","0.00","0.00"
"05:04:56","70.1","68.9","96","29.86","182","0","0","0.00","0.00"
"05:09:56","70","68.8","96","29.86","182","0","0","0.00","0.00"
"05:14:57","69.9","68.7","96","29.86","182","0","0","0.00","0.00"
"05:19:58","69.9","68.7","96","29.86","182","0","0","0.00","0.00"
"05:24:59","69.8","68.6","96","29.86","182","0","0","0.00","0.00"
"05:29:59","69.7","68.5","96","29.86","182","0","0","0.00","0.00"
"05:34:55","69.7","68.5","96","29.86","182","0","0","0.00","0.00"
"05:39:59","69.6","68.4","96","29.86","182","0","0","0.00","0.00"
"05:44:58","69.5","68.3","96","29.86","182","0","0","0.00","0.00"
"05:49:59","69.5","68.2","95.6","29.86","182","0","0","0.00","0.00"
"05:54:59","69.5","68","95","29.86","182","0","0","0.00","0.00"
"05:59:56","69.5","68","95","29.87","182","0","0","0.00","0.00"
"06:04:58","69.4","67.9","95","29.87","182","0","0","0.00","0.00"
"06:09:59","69.4","67.9","95","29.87","182","0","0","0.00","0.00"
"06:14:57","69.3","67.8","95","29.87","182","0","0","0.00","0.00"
"06:19:59","69.3","67.8","95","29.86","182","0","0","0.00","0.00"
"06:24:57","69.2","67.7","95","29.86","182","0","0","0.00","0.00"
"06:29:59","69.2","67.7","95","29.86","182","0","0","0.00","0.00"
"06:34:56","69.2","67.7","95","29.86","182","0","0","0.00","0.00"
"06:39:58","69.1","67.7","95.1","29.86","182","0","0","0.00","0.00"
"06:44:59","69.1","67.9","96","29.87","182","0","0","0.00","0.00"
"06:49:56","69.2","68","96","29.87","182","0","0","0.00","0.00"
"06:54:58","69.2","67.8","95.3","29.87","182","0","0","0.00","0.00"
"06:59:56","69.4","67.8","94.6","29.87","182","0","0","0.00","0.00"
"07:04:59","69.6","67.8","94","29.87","182","0","0","0.00","0.00"
"07:09:58","69.8","67.8","93.2","29.87","182","0","0","0.00","0.00"
"07:14:57","70.1","67.8","92.2","29.88","197","0","0","0.00","0.00"
"07:19:56","70.6","67.9","91.2","29.88","335","0","1.2","0.00","0.00"
"07:24:56","71.1","68","90","29.88","242","0","0","0.00","0.00"
"07:29:59","71.6","68.3","89.4","29.89","242","0","0","0.00","0.00"
"07:34:58","72","68.2","87.8","29.89","281","0","0","0.00","0.00"
"07:39:57","72.5","68.4","86.9","29.89","290","0","0","0.00","0.00"
"07:44:58","73.1","68.4","85.2","29.89","290","0","0","0.00","0.00"
"07:49:57","73.6","68.6","84.3","29.89","244","0","0","0.00","0.00"
"07:54:57","74.1","68.9","83.9","29.89","306","0","1.2","0.00","0.00"
"07:59:59","74.5","68.9","82.8","29.89","306","0","0","0.00","0.00"
"08:04:57","74.9","69.5","83.5","29.89","306","0","0","0.00","0.00"
"08:09:59","75.3","69.7","82.8","29.89","307","0","0","0.00","0.00"
"08:14:56","75.7","69.6","81.4","29.89","303","0","0","0.00","0.00"
"08:19:57","76.2","70.1","81.5","29.89","303","0","0","0.00","0.00"
"08:24:56","76.7","69.8","79.2","29.89","5","0","1.2","0.00","0.00"
"08:29:55","77.2","69.9","78.3","29.89","308","0.1","1.2","0.00","0.00"
"08:34:59","77.7","70.2","78","29.89","309","0.2","5","0.00","0.00"
"08:39:58","78","70.5","77.7","29.89","296","0.3","4.6","0.00","0.00"
"08:44:58","78.3","70.6","77.2","29.89","272","0.2","3","0.00","0.00"
"08:49:59","78.7","70.4","75.9","29.89","271","0.2","3.5","0.00","0.00"
"08:54:57","78.8","70.5","75.7","29.89","218","0.2","4","0.00","0.00"
"08:59:58","78.7","70.7","76.5","29.90","211","0.1","6","0.00","0.00"
"09:04:59","78.6","70.9","77.1","29.90","194","0.1","2.3","0.00","0.00"
"09:09:58","78.6","71.1","77.8","29.90","302","0.1","2.3","0.00","0.00"
"09:14:59","78.8","70.7","76.1","29.90","313","0.3","3.5","0.00","0.00"
"09:19:57","79.2","71.5","77.4","29.89","222","0.1","6","0.00","0.00"
"09:24:59","79.7","71.7","76.7","29.89","264","0.8","5","0.00","0.00"
"09:29:56","80.2","71.8","75.7","29.89","299","1.6","6","0.00","0.00"
"09:34:57","80.5","71.7","74.9","29.89","261","1.2","5.8","0.00","0.00"
"09:39:58","80.8","71.7","74.2","29.89","304","0.6","7","0.00","0.00"
"09:44:56","81","72.1","74.5","29.90","314","1.2","6.9","0.00","0.00"
"09:49:58","81.4","72.1","73.6","29.90","307","0.8","5","0.00","0.00"
"09:54:56","81.8","72.7","74.1","29.90","143","0.3","5","0.00","0.00"
"09:59:58","82.1","72.6","73","29.90","333","0.8","9","0.00","0.00"
"10:04:55","82.2","72.5","72.5","29.89","332","1","7","0.00","0.00"
"10:09:57","82.5","72.7","72.5","29.89","313","2.1","11.5","0.00","0.00"
"10:14:59","82.5","72.9","72.6","29.89","355","1.3","11.5","0.00","0.00"
"10:19:57","83","73.1","72.3","29.89","318","1.2","10","0.00","0.00"
"10:24:55","83.5","73.5","72","29.89","265","1","10.4","0.00","0.00"
"10:29:58","83.9","73.8","71.8","29.90","340","1.2","5","0.00","0.00"
"10:34:56","83.8","73.8","72","29.90","331","0.7","4.6","0.00","0.00"
"10:39:57","83.6","73.6","71.8","29.90","216","0.6","4","0.00","0.00"
"10:44:56","83.6","74.2","73.4","29.90","253","0.8","5","0.00","0.00"
"10:49:58","83.6","73.4","71.4","29.90","291","0.6","5","0.00","0.00"
"10:54:57","83.3","73.7","73.1","29.90","269","0.4","5","0.00","0.00"
"10:59:56","83.5","74.3","74.1","29.90","207","0","1","0.00","0.00"
"11:04:57","84.2","74.7","73.3","29.90","329","0.2","4","0.00","0.00"
"11:09:59","85","75.4","73","29.90","312","1.4","8.1","0.00","0.00"
"11:14:56","85.4","74.8","70.9","29.90","251","2.7","5","0.00","0.00"
"11:19:58","84.9","73.9","69.7","29.90","311","3.1","10","0.00","0.00"
"11:24:56","84.6","74","70.5","29.90","284","3.2","7","0.00","0.00"
"11:29:57","84.5","74.4","71.8","29.90","270","1.4","4.6","0.00","0.00"
"11:34:59","84.6","74.1","70.8","29.89","308","1.2","4","0.00","0.00"
"11:39:57","84.6","73.6","69.7","29.89","310","0.7","5","0.00","0.00"
"11:44:56","84.4","73.7","70.3","29.90","312","0.6","4","0.00","0.00"
"11:49:59","84.3","74.1","71.4","29.90","265","1","4","0.00","0.00"
"11:54:58","84.4","74.1","71.3","29.90","296","1.7","5","0.00","0.00"
"11:59:56","84.6","74.3","71.4","29.90","341","2.6","7","0.00","0.00"
"12:04:58","85.2","74.1","69.7","29.90","297","2.8","7","0.00","0.00"
"12:09:56","85.6","74.6","69.8","29.90","264","2.5","5","0.00","0.00"
"12:14:57","86.2","74.9","69","29.90","319","1.6","9.2","0.00","0.00"
"12:19:56","86.2","74.7","68.7","29.89","308","0.8","6","0.00","0.00"
"12:24:56","86.4","75.1","69.3","29.89","258","0.8","8.1","0.00","0.00"
"12:29:58","86.7","74.8","67.8","29.89","315","1.2","9.2","0.00","0.00"
"12:34:57","87.1","74.9","67.2","29.89","321","1.7","8.1","0.00","0.00"
"12:39:59","87.1","74.7","66.7","29.89","290","2.7","6.9","0.00","0.00"
"12:44:58","87.2","75.1","67.5","29.89","217","3.5","9.2","0.00","0.00"
"12:49:58","87.5","75.4","67.4","29.89","227","3.2","10.4","0.00","0.00"
"12:54:55","87.9","75.1","66","29.89","272","2.6","5","0.00","0.00"
"12:59:58","88.3","75.6","66.1","29.89","186","1.5","5","0.00","0.00"
"13:04:56","88.5","74.9","64.2","29.88","270","0.5","5","0.00","0.00"
"13:09:58","88.6","75.3","64.9","29.88","292","0.7","5","0.00","0.00"
"13:14:56","88.7","74.9","63.9","29.88","339","3.4","14","0.00","0.00"
"13:19:57","88.7","75.7","65.7","29.88","320","2.3","6.9","0.00","0.00"
"13:24:56","89.1","75.5","64.3","29.88","238","4.1","9.2","0.00","0.00"
"13:29:58","89.3","75.3","63.6","29.88","306","3.2","11","0.00","0.00"
"13:34:57","89.1","74.7","62.7","29.88","320","4.6","13","0.00","0.00"
"13:39:58","89.1","74.4","62","29.88","294","2.2","3.5","0.00","0.00"
"13:44:58","89.6","76.1","64.7","29.88","247","2.1","7","0.00","0.00"
"13:49:58","90.2","75.4","62","29.88","331","3.3","11","0.00","0.00"
"13:54:58","90.4","75.1","61","29.88","289","2.9","12","0.00","0.00"
"13:59:58","90.6","75.6","61.8","29.88","348","3.1","7","0.00","0.00"
"14:04:59","90.7","75.2","60.7","29.88","228","3.5","8.1","0.00","0.00"
"14:09:57","90.9","75.9","61.7","29.88","240","2.4","4.6","0.00","0.00"
"14:14:56","91","75.1","59.8","29.88","294","3.8","9.2","0.00","0.00"
"14:19:57","90.8","74.3","58.5","29.87","325","3.3","7","0.00","0.00"
"14:23:59","90.8","74.3","58.7","29.87","303","1.8","7","0.00","0.00"
"14:29:58","91","74.7","59.1","29.87","281","2.3","11","0.00","0.00"
"14:34:58","91.2","74.7","58.7","29.87","340","2.9","10.4","0.00","0.00"
"14:39:59","91.4","74.8","58.5","29.87","283","3.9","13","0.00","0.00"
"14:44:58","91.4","75.4","59.8","29.87","259","2.5","5","0.00","0.00"
"14:49:58","91.5","74.3","57.4","29.87","327","3.5","13","0.00","0.00"
"14:54:59","91.5","74.2","57.2","29.87","311","3.5","10","0.00","0.00"
"14:59:59","91.8","75","58.3","29.87","294","2.8","7","0.00","0.00"
"15:04:56","92.1","74.5","56.8","29.87","310","3.4","10.4","0.00","0.00"
"15:09:58","92","74","55.9","29.87","333","3.4","12","0.00","0.00"
"15:14:57","91.9","73.7","55.4","29.87","337","4.4","12","0.00","0.00"
"15:17:29","91.8","73.4","55.2","29.87","293","2.7","7","0.00","0.00"
"15:24:56","91.8","74.3","56.7","29.87","317","3.1","9.2","0.00","0.00"
"15:29:57","92","73.6","55.2","29.87","290","3.3","11.5","0.00","0.00"
"15:34:57","92.1","74.2","56.1","29.86","282","2.6","7","0.00","0.00"
"15:39:58","92.4","73.6","54.5","29.86","323","2.4","9.2","0.00","0.00"
"15:49:58","92.7","74.3","55.2","29.86","2","1.9","5","0.00","0.00"
"15:54:59","93.1","74.3","54.7","29.86","311","3.3","12","0.00","0.00"
"15:59:58","92.9","73.7","53.7","29.86","314","2.5","9.2","0.00","0.00"
"16:04:56","93.1","74.5","55","29.85","285","2.2","5","0.00","0.00"
"16:09:58","93.2","73.7","53.2","29.85","331","3.6","10","0.00","0.00"
"16:14:58","93.2","73","52.1","29.85","322","3.8","10.4","0.00","0.00"
"16:19:59","93.2","72.9","51.8","29.85","310","3.1","10.4","0.00","0.00"
"16:24:59","93.1","71.9","50.4","29.85","325","3.3","11.5","0.00","0.00"
"16:26:25","92.9","72","50.7","29.85","306","2.6","4.6","0.00","0.00"
"16:34:59","93.2","72.4","51.1","29.85","346","2.5","6","0.00","0.00"
"16:39:56","93.3","72.9","51.8","29.85","331","1.9","5.8","0.00","0.00"
"16:44:55","93.4","72.7","51.3","29.85","351","2.3","6","0.00","0.00"
"16:49:57","93.3","73.3","52.3","29.85","309","1.8","7","0.00","0.00"
"16:54:59","93.4","73","51.8","29.85","323","1.6","5","0.00","0.00"
"16:59:59","93.6","72.3","50.3","29.85","230","1.9","6","0.00","0.00"
"17:04:57","93.6","72.3","50.3","29.85","202","1.8","4","0.00","0.00"
"17:09:55","93.5","72.6","50.9","29.85","281","2.2","4","0.00","0.00"
"17:14:59","93.5","72.7","51","29.85","217","1.7","5","0.00","0.00"
"17:19:56","93.7","72.8","50.9","29.84","256","1.5","6","0.00","0.00"
"17:24:56","93.8","73","51.3","29.84","316","1.7","5.8","0.00","0.00"
"17:29:58","93.9","73.5","51.9","29.85","322","1","4","0.00","0.00"
"17:34:58","94","71.6","48.5","29.85","315","2.2","5","0.00","0.00"
"17:39:59","93.9","72.2","49.6","29.85","328","1.9","5","0.00","0.00"
"17:44:55","93.8","72.6","50.5","29.85","303","1.2","5","0.00","0.00"
"17:49:57","93.6","72","49.7","29.85","247","1.4","4","0.00","0.00"
"17:54:56","93.6","72.4","50.4","29.85","209","1.6","3.5","0.00","0.00"
"17:59:55","93.6","72","49.7","29.85","273","1.8","4","0.00","0.00"
"18:04:58","93.6","72.3","50.2","29.85","304","1.2","3.5","0.00","0.00"
"18:09:57","93.7","72","49.7","29.85","303","0.9","3.5","0.00","0.00"
"18:14:59","93.8","71.2","48.2","29.85","285","1.2","4","0.00","0.00"
"18:19:58","93.6","71.7","49.2","29.85","267","0.7","3.5","0.00","0.00"
"18:24:55","93.4","72.3","50.6","29.85","267","0.8","2.3","0.00","0.00"
"18:29:58","93.2","72.2","50.7","29.86","267","0.7","2.3","0.00","0.00"
"18:34:57","92.8","71.9","50.9","29.86","267","0.6","2.3","0.00","0.00"
"18:39:56","92.1","72.5","52.9","29.86","267","0.7","2.3","0.00","0.00"
"18:44:55","91.4","72.9","54.9","29.86","267","0.9","3","0.00","0.00"
"18:49:55","90.6","74","58.6","29.86","267","0.8","2.3","0.00","0.00"
"18:54:57","89.9","74.1","59.9","29.86","267","1.1","2.3","0.00","0.00"
"18:59:58","89.3","75.4","63.7","29.86","267","0.8","2.3","0.00","0.00"
"19:04:58","88.6","74.6","63.5","29.86","267","0.1","1.2","0.00","0.00"
"19:09:57","87.8","74.2","64.1","29.86","267","0.2","1.2","0.00","0.00"
"19:14:57","87.2","74.4","65.9","29.86","267","0","0","0.00","0.00"
"19:19:57","86.6","75.4","69.5","29.86","267","0","0","0.00","0.00"
"19:24:59","85.9","74.4","68.6","29.86","267","0.3","1.2","0.00","0.00"
"19:29:56","85.5","74.3","69.4","29.86","267","0","0","0.00","0.00"
"19:34:58","85.2","75.2","72.3","29.86","267","0","0","0.00","0.00"
"19:39:59","84.6","74.8","72.5","29.86","267","0","0","0.00","0.00"
"19:44:56","84.2","74.6","73","29.87","267","0","0","0.00","0.00"
"19:49:57","83.8","75.1","75.1","29.87","267","0","0","0.00","0.00"
"19:54:59","83.4","74.7","75.1","29.87","267","0","0","0.00","0.00"
"19:59:56","83.3","74.9","75.9","29.87","267","0","0","0.00","0.00"
"20:04:56","83.3","75.4","77.4","29.87","267","0","0","0.00","0.00"
"20:09:59","83","75","76.9","29.87","242","0.4","3.5","0.00","0.00"
"20:14:57","82.7","74.1","75.2","29.88","254","1.2","4","0.00","0.00"
"20:19:58","82.8","73","72.5","29.88","222","1.2","3.5","0.00","0.00"
"20:24:58","83.1","73","71.8","29.88","231","0.6","4","0.00","0.00"
"20:29:58","83.3","73","71.3","29.88","250","0.7","3.5","0.00","0.00"
"20:34:56","83.5","72.7","70.1","29.88","252","0.1","1.2","0.00","0.00"
"20:39:59","83.6","72.8","70","29.88","252","0","0","0.00","0.00"
"20:44:59","83.6","72.9","70.2","29.89","252","0","0","0.00","0.00"
"20:49:55","83.5","72.8","70.4","29.89","252","0","0","0.00","0.00"
"20:54:56","83.3","72.9","70.9","29.89","252","0","0","0.00","0.00"
"20:59:56","83","73.3","72.7","29.89","252","0","0","0.00","0.00"
"21:04:57","82.4","73","73.2","29.89","252","0","0","0.00","0.00"
"21:09:56","81.9","73.1","74.8","29.89","252","0","0","0.00","0.00"
"21:14:59","81.4","73.1","75.9","29.90","252","0","0","0.00","0.00"
"21:19:55","81","73.3","77.5","29.90","252","0","0","0.00","0.00"
"21:24:57","80.6","73.3","78.6","29.90","252","0","0","0.00","0.00"
"21:29:58","80.3","73.6","80","29.90","252","0","0","0.00","0.00"
"21:34:57","80","73.6","80.9","29.90","252","0","0","0.00","0.00"
"21:39:57","79.8","73.6","81.6","29.90","252","0","0","0.00","0.00"
"21:44:59","79.6","73.6","82","29.90","252","0","0","0.00","0.00"
"21:49:57","79.4","73.8","83","29.90","252","0","0","0.00","0.00"
"21:54:56","79.5","73.4","81.9","29.90","252","0","0","0.00","0.00"
"21:59:57","79.6","73.4","81.6","29.90","252","0","0","0.00","0.00"
"22:04:58","79.6","73.2","80.8","29.90","252","0","0","0.00","0.00"
"22:09:57","79.7","72.9","79.8","29.90","252","0","0","0.00","0.00"
"22:14:56","79.7","73.3","81","29.90","252","0","0","0.00","0.00"
"22:19:56","79.6","73.3","81.2","29.90","252","0","0","0.00","0.00"
"22:24:56","79.4","73.1","81","29.90","252","0","0","0.00","0.00"
"22:29:57","79.1","72.8","81","29.90","252","0","0","0.00","0.00"
"22:34:58","78.8","72.2","80.1","29.90","252","0","0","0.00","0.00"
"22:39:57","78.8","72.3","80.5","29.90","252","0","0","0.00","0.00"
"22:44:56","78.9","72.2","80","29.91","252","0","0","0.00","0.00"
"22:49:59","78.9","72.3","80.2","29.91","252","0","0","0.00","0.00"
"22:54:59","79","72.3","80","29.91","252","0","1","0.00","0.00"
"22:59:56","79.2","72.2","79.4","29.92","252","0","0","0.00","0.00"
"23:04:59","79.3","72.1","78.8","29.92","252","0","0","0.00","0.00"
"23:09:58","79.5","72.3","78.7","29.92","268","0","1.2","0.00","0.00"
"23:14:59","79.6","72","77.8","29.92","268","0","1.2","0.00","0.00"
"23:19:56","79.6","72.1","78","29.92","268","0","0","0.00","0.00"
"23:24:58","79.5","72","78","29.92","268","0","0","0.00","0.00"
"23:29:58","79.4","71.9","78.2","29.92","268","0","0","0.00","0.00"
"23:34:57","79.2","72.1","79","29.92","268","0","0","0.00","0.00"
"23:39:59","79","71.9","79","29.92","268","0","0","0.00","0.00"
"23:44:56","78.8","72","79.8","29.92","268","0","0","0.00","0.00"
"23:49:59","78.6","71.8","79.7","29.92","268","0","0","0.00","0.00"
"23:54:58","78.5","71.8","80","29.92","268","0","1.2","0.00","0.00"
"23:59:59","78.5","71.8","80","29.92","268","0","0","0.00","0.00"
